Powrót do katalogu

ARIANE 1 DEB

AktywnyHEO
NORAD 17255·DEBRIS·🇫🇷 France

Wystrzelony Jul 2, 1985 z Guiana Space Centre

Loading…

Następne Przeloty (najbliższe 24 godziny)

TLE

ŚwieżeSource: Space-Track

Epoka: Sep 14, 2026, 00:45 UTC

1 17255U 85056C   26257.03171463 -.00000193  00000-0 -43953-3 0  9993
2 17255   8.2361 182.8708 6438023 209.5254  89.5251  3.23420626348507

Śledź ARIANE 1 DEB w czasie rzeczywistym z AllMySat

Download on the App Store